Time,TemperatureF,DewpointF,PressureIn,WindDirection,WindDirectionDegrees,WindSpeedMPH,WindSpeedGustMPH,Humidity,HourlyPrecipIn,Conditions,Clouds,dailyrainin,SoftwareType,DateUTC
2013-04-28 00:02:00,45.0,36.0,30.05,NNW,348,9.0,13.0,71,0.00,,,0.00,,2013-04-27 23:02:00,
2013-04-28 00:11:00,45.0,36.0,30.05,NNW,348,9.0,13.0,71,0.00,,,0.00,,2013-04-27 23:11:00,
2013-04-28 00:22:00,45.0,36.0,30.02,North,354,6.0,10.0,70,0.00,,,0.00,,2013-04-27 23:22:00,
2013-04-28 00:32:00,45.0,36.0,30.02,NNW,338,5.0,7.0,70,0.00,,,0.00,,2013-04-27 23:32:00,
2013-04-28 00:42:00,45.0,36.0,30.02,NNW,338,5.0,7.0,70,0.00,,,0.00,,2013-04-27 23:42:00,
2013-04-28 00:52:00,44.0,36.0,30.05,NNW,342,6.0,10.0,73,0.00,,,0.00,,2013-04-27 23:52:00,
2013-04-28 01:01:00,43.0,35.0,30.05,NNW,344,2.0,5.0,73,0.00,,,0.00,,2013-04-28 00:01:00,
2013-04-28 01:11:00,43.0,35.0,30.05,NNW,344,2.0,5.0,73,0.00,,,0.00,,2013-04-28 00:11:00,
2013-04-28 01:21:00,43.0,36.0,30.05,NNW,348,5.0,7.0,77,0.00,,,0.00,,2013-04-28 00:21:00,
2013-04-28 01:31:00,43.0,37.0,30.02,NW,314,5.0,6.0,79,0.00,,,0.00,,2013-04-28 00:31:00,
2013-04-28 01:42:00,43.0,37.0,30.02,NW,314,5.0,6.0,79,0.00,,,0.00,,2013-04-28 00:42:00,
2013-04-28 01:52:00,42.0,36.0,30.02,WNW,292,3.0,6.0,79,0.00,,,0.00,,2013-04-28 00:52:00,
2013-04-28 02:01:00,42.0,36.0,30.02,NNW,336,1.0,5.0,79,0.00,,,0.00,,2013-04-28 01:01:00,
2013-04-28 02:11:00,43.0,37.0,30.05,NNW,338,4.0,6.0,80,0.00,,,0.00,,2013-04-28 01:11:00,
2013-04-28 02:21:00,43.0,37.0,30.05,NNW,338,4.0,6.0,80,0.00,,,0.00,,2013-04-28 01:21:00,
2013-04-28 02:31:00,43.0,38.0,30.02,NNW,338,3.0,5.0,81,0.00,,,0.00,,2013-04-28 01:31:00,
2013-04-28 02:41:00,43.0,38.0,30.02,NNW,338,3.0,5.0,81,0.00,,,0.00,,2013-04-28 01:41:00,
2013-04-28 02:52:00,43.0,37.0,30.02,NNW,332,3.0,5.0,80,0.00,,,0.00,,2013-04-28 01:52:00,
2013-04-28 03:01:00,43.0,37.0,30.02,NNW,338,4.0,6.0,79,0.00,,,0.00,,2013-04-28 02:01:00,
2013-04-28 03:11:00,43.0,37.0,30.02,NNW,338,4.0,6.0,79,0.00,,,0.00,,2013-04-28 02:11:00,
2013-04-28 03:21:00,43.0,37.0,30.02,NNW,335,3.0,6.0,78,0.00,,,0.00,,2013-04-28 02:21:00,
2013-04-28 03:31:00,44.0,38.0,30.02,NNW,338,5.0,6.0,80,0.00,,,0.00,,2013-04-28 02:31:00,
2013-04-28 03:41:00,44.0,38.0,30.02,NNW,338,5.0,6.0,80,0.00,,,0.00,,2013-04-28 02:41:00,
2013-04-28 03:52:00,44.0,38.0,30.02,NNW,338,5.0,6.0,80,0.00,,,0.00,,2013-04-28 02:52:00,
2013-04-28 04:01:00,44.0,38.0,30.02,NNW,343,2.0,6.0,80,0.00,,,0.00,,2013-04-28 03:01:00,
2013-04-28 04:11:00,44.0,38.0,30.02,NNW,343,2.0,6.0,80,0.00,,,0.00,,2013-04-28 03:11:00,
2013-04-28 04:21:00,44.0,38.0,30.02,NNW,338,3.0,6.0,79,0.00,,,0.00,,2013-04-28 03:21:00,
2013-04-28 04:32:00,45.0,39.0,30.02,NNW,338,5.0,7.0,78,0.00,,,0.00,,2013-04-28 03:32:00,
2013-04-28 04:42:00,45.0,39.0,30.02,NNW,338,5.0,7.0,78,0.00,,,0.00,,2013-04-28 03:42:00,
2013-04-28 04:53:00,45.0,39.0,30.02,NNW,338,3.0,5.0,78,0.00,,,0.00,,2013-04-28 03:53:00,
2013-04-28 05:02:00,45.0,39.0,30.02,NNW,348,3.0,6.0,79,0.00,,,0.00,,2013-04-28 04:02:00,
2013-04-28 05:13:00,45.0,39.0,30.02,NNW,348,3.0,6.0,79,0.00,,,0.00,,2013-04-28 04:13:00,
2013-04-28 05:22:00,45.0,40.0,29.99,NNW,340,3.0,5.0,81,0.00,,,0.00,,2013-04-28 04:22:00,
2013-04-28 05:32:00,45.0,40.0,29.99,NNW,338,5.0,6.0,82,0.00,,,0.00,,2013-04-28 04:32:00,
2013-04-28 05:42:00,45.0,40.0,29.99,NNW,338,5.0,6.0,82,0.00,,,0.00,,2013-04-28 04:42:00,
2013-04-28 05:53:00,45.0,40.0,29.99,NNW,337,3.0,6.0,82,0.00,,,0.00,,2013-04-28 04:53:00,
2013-04-28 06:02:00,45.0,40.0,29.99,NNW,348,3.0,6.0,81,0.00,,,0.00,,2013-04-28 05:02:00,
2013-04-28 06:12:00,45.0,40.0,29.99,NNW,348,3.0,6.0,81,0.00,,,0.00,,2013-04-28 05:12:00,
2013-04-28 06:22:00,45.0,39.0,29.99,NNW,338,1.0,3.0,80,0.00,,,0.00,,2013-04-28 05:22:00,
2013-04-28 06:32:00,45.0,39.0,29.99,NNW,338,3.0,5.0,80,0.00,,,0.00,,2013-04-28 05:32:00,
2013-04-28 06:42:00,45.0,39.0,29.99,NNW,338,3.0,5.0,80,0.00,,,0.00,,2013-04-28 05:42:00,
2013-04-28 06:52:00,46.0,40.0,29.99,NNW,338,2.0,3.0,79,0.00,,,0.00,,2013-04-28 05:52:00,
2013-04-28 07:01:00,46.0,41.0,29.99,NNW,347,5.0,6.0,81,0.00,,,0.00,,2013-04-28 06:01:00,
2013-04-28 07:12:00,46.0,41.0,29.99,NNW,347,5.0,6.0,81,0.00,,,0.00,,2013-04-28 06:12:00,
2013-04-28 07:21:00,46.0,40.0,29.99,North,349,3.0,6.0,80,0.00,,,0.00,,2013-04-28 06:21:00,
2013-04-28 07:32:00,46.0,40.0,29.99,North,349,3.0,6.0,80,0.00,,,0.00,,2013-04-28 06:32:00,
2013-04-28 07:41:00,46.0,40.0,29.99,North,349,3.0,6.0,80,0.00,,,0.00,,2013-04-28 06:41:00,
2013-04-28 07:52:00,46.0,39.0,29.99,North,0,0.0,0.0,77,0.00,,,0.00,,2013-04-28 06:52:00,
2013-04-28 08:01:00,47.0,40.0,29.99,WNW,292,0.0,0.0,76,0.00,,,0.00,,2013-04-28 07:01:00,
2013-04-28 08:11:00,47.0,40.0,29.99,WNW,292,0.0,0.0,76,0.00,,,0.00,,2013-04-28 07:11:00,
2013-04-28 08:21:00,47.0,39.0,30.02,WNW,292,0.0,0.0,75,0.00,,,0.00,,2013-04-28 07:21:00,
2013-04-28 08:31:00,47.0,39.0,30.02,WNW,292,0.0,0.0,74,0.00,,,0.00,,2013-04-28 07:31:00,
2013-04-28 08:42:00,47.0,39.0,30.02,WNW,292,0.0,0.0,74,0.00,,,0.00,,2013-04-28 07:42:00,
2013-04-28 08:52:00,48.0,39.0,30.02,SSW,202,0.0,21.0,71,0.00,,,0.00,,2013-04-28 07:52:00,
2013-04-28 09:01:00,48.0,39.0,30.02,WNW,292,1.0,1.0,71,0.00,,,0.00,,2013-04-28 08:01:00,
2013-04-28 09:11:00,48.0,39.0,30.02,WNW,292,1.0,1.0,71,0.00,,,0.00,,2013-04-28 08:11:00,
2013-04-28 09:21:00,49.0,39.0,30.02,West,273,11.0,11.0,68,0.00,,,0.00,,2013-04-28 08:21:00,
2013-04-28 09:31:00,50.0,38.0,30.02,WSW,258,2.0,6.0,62,0.00,,,0.00,,2013-04-28 08:31:00,
2013-04-28 09:42:00,50.0,38.0,30.02,WSW,258,2.0,6.0,62,0.00,,,0.00,,2013-04-28 08:42:00,
2013-04-28 09:51:00,50.0,36.0,30.02,SSE,168,1.0,6.0,59,0.00,,,0.00,,2013-04-28 08:51:00,
2013-04-28 10:01:00,50.0,36.0,30.02,SSW,201,1.0,6.0,58,0.00,,,0.00,,2013-04-28 09:01:00,
2013-04-28 10:11:00,50.0,36.0,30.02,SSW,201,1.0,6.0,58,0.00,,,0.00,,2013-04-28 09:11:00,
2013-04-28 10:21:00,51.0,36.0,30.02,SSW,194,2.0,7.0,57,0.00,,,0.00,,2013-04-28 09:21:00,
2013-04-28 10:32:00,51.0,35.0,30.02,SSE,158,3.0,12.0,55,0.00,,,0.00,,2013-04-28 09:32:00,
2013-04-28 10:42:00,51.0,35.0,30.02,SSE,158,3.0,12.0,55,0.00,,,0.00,,2013-04-28 09:42:00,
2013-04-28 10:53:00,52.0,34.0,30.02,SSW,203,2.0,14.0,50,0.00,,,0.00,,2013-04-28 09:53:00,
2013-04-28 11:02:00,53.0,33.0,30.02,South,184,2.0,5.0,46,0.00,,,0.00,,2013-04-28 10:02:00,
2013-04-28 11:12:00,53.0,33.0,30.02,South,184,2.0,5.0,46,0.00,,,0.00,,2013-04-28 10:12:00,
2013-04-28 11:22:00,54.0,28.0,30.02,SSW,204,3.0,6.0,36,0.00,,,0.00,,2013-04-28 10:22:00,
2013-04-28 11:32:00,53.0,25.0,30.02,SW,234,3.0,6.0,33,0.00,,,0.00,,2013-04-28 10:32:00,
2013-04-28 11:42:00,53.0,25.0,30.02,SW,234,3.0,6.0,33,0.00,,,0.00,,2013-04-28 10:42:00,
2013-04-28 11:52:00,53.0,25.0,30.02,SW,234,3.0,6.0,33,0.00,,,0.00,,2013-04-28 10:52:00,
2013-04-28 12:02:00,54.0,27.0,30.02,SSW,202,4.0,8.0,35,0.00,,,0.00,,2013-04-28 11:02:00,
2013-04-28 12:11:00,54.0,27.0,30.02,SSW,202,4.0,8.0,35,0.00,,,0.00,,2013-04-28 11:11:00,
2013-04-28 12:21:00,54.0,27.0,30.02,SW,226,6.0,9.0,35,0.00,,,0.00,,2013-04-28 11:21:00,
2013-04-28 12:32:00,55.0,29.0,30.02,WSW,252,5.0,8.0,36,0.00,,,0.00,,2013-04-28 11:32:00,
2013-04-28 12:42:00,55.0,29.0,30.02,WSW,252,5.0,8.0,36,0.00,,,0.00,,2013-04-28 11:42:00,
2013-04-28 12:52:00,55.0,29.0,30.02,WSW,252,5.0,8.0,36,0.00,,,0.00,,2013-04-28 11:52:00,
2013-04-28 13:01:00,55.0,29.0,30.02,WSW,252,5.0,8.0,36,0.00,,,0.00,,2013-04-28 12:01:00,
2013-04-28 13:11:00,55.0,29.0,30.02,WSW,252,5.0,8.0,36,0.00,,,0.00,,2013-04-28 12:11:00,
2013-04-28 13:21:00,58.0,28.0,29.99,WSW,257,5.0,10.0,31,0.00,,,0.00,,2013-04-28 12:21:00,
2013-04-28 13:32:00,60.0,26.0,29.99,SSW,199,6.0,13.0,27,0.00,,,0.00,,2013-04-28 12:32:00,
2013-04-28 13:42:00,60.0,26.0,29.99,SSW,199,6.0,13.0,27,0.00,,,0.00,,2013-04-28 12:42:00,
2013-04-28 13:51:00,58.0,28.0,29.99,WSW,248,5.0,10.0,32,0.00,,,0.00,,2013-04-28 12:51:00,
2013-04-28 14:02:00,55.0,28.0,30.02,WSW,248,7.0,10.0,35,0.00,,,0.00,,2013-04-28 13:02:00,
2013-04-28 14:11:00,55.0,28.0,30.02,WSW,248,7.0,10.0,35,0.00,,,0.00,,2013-04-28 13:11:00,
2013-04-28 14:21:00,56.0,29.0,29.99,WSW,239,5.0,9.0,36,0.00,,,0.00,,2013-04-28 13:21:00,
2013-04-28 14:31:00,56.0,29.0,29.99,SSW,194,5.0,9.0,35,0.00,,,0.00,,2013-04-28 13:31:00,
2013-04-28 14:42:00,56.0,29.0,29.99,SSW,194,5.0,9.0,35,0.00,,,0.00,,2013-04-28 13:42:00,
2013-04-28 14:52:00,56.0,29.0,29.99,SSW,194,5.0,9.0,35,0.00,,,0.00,,2013-04-28 13:52:00,
2013-04-28 15:01:00,56.0,29.0,29.99,SSW,194,5.0,9.0,35,0.00,,,0.00,,2013-04-28 14:01:00,